TITAN 3C TRANSTAGE DEB, 43455

Orbit data source: Space-Track

TITAN 3C TRANSTAGE DEB, 43455 is space debris in GEO originally from a launch on Sun, 09 Feb 1969 UTC launched from the Air Force Eastern Test Range (AFETR). Debris objects in space refer to the collection of defunct objects orbiting the Earth. Examples of debris include non-operational satellites, rocket bodies, and fragments generated from explosions, collisions, or faulty payload assembly.

Loading next visibility...
Identifier
43455, 1969-013N
Orbit
GEO
Country
Flag of USUS
Related business
Manufacturer
Martin Marietta
Mission
Spacecraft
Bus & Motor
Unknown
Mass
Unknown
Launch date (UTC)
1969-02-09 (57 years ago)
Launch vehicle
Unknown
Launch site
Air Force Eastern Test Range (AFETR)
Object type
Payload
Rocket body
Debris
Shape & HBR
Unknown shape, 1.1 m
Radar Cross Section
RCS unknown

Expand to show TLE details & history
Last TLE update: 2 weeks ago

TLE from 2 weeks ago
0 TITAN 3C TRANSTAGE DEB
1 43455U 69013N   25335.65329908 -.00000077  00000-0  00000-0 0  9995
2 43455   1.3407 157.7397 0282267  74.8603 288.8281  0.94014710 26496
Epoch: 2025-12-01T15:40Z
TLE epoch observation values (Epoch: 2025-12-01T15:40:45.040Z)
Latitude
-0°
Longitude
-147.65404°
Altitude
37,269.501 km
Speed
3.035 km/s
True Right ascension
10h 33m 08s
True Declination
0° 00' 00"
Sunlit
Object was in daylight at epoch
Visualization orbit readout
Latitude
Unknown
Longitude
Unknown
Altitude
Unknown
Speed
Unknown
Apparent Right ascension
Unknown
Apparent Declination
Unknown
Sunlit
N/A
Visualization observer readout
Local Sidereal Time
04:04:59
Azimuth
Unknown
Elevation
Unknown
Doppler factor
Unknown
Orbital elements
Apogee altitude
38,880.728 km
Perigee altitude
36,395.851 km
Semi-major axis
44,016.426 km
Eccentricity
0.02823
Inclination
1.3407°
RAAN
157.7397°
Arg. of periapsis
74.8603°
True anomaly
285.7329°
Mean anomaly
288.8281°
Eccentric anomaly
287.28386°
Mean motion
0.23503 °/min
Orbital period
1,531.73 mins
BSTAR
0
Loading maneuver chart data...
Computing Atmospheric mass density...

Documentation

Showing up to 5 results
|